Temp
32 31 30 29 30 32 33 33 34 34 34 33 32 30 29 27 27 32 33 32 33 31 29 30 30 29 28 28 29 29 29 28 28 27 27 27 27 26 26 26 26 26 26 26 26 26 26 26 26 26 26 26 25 25 25 25 25 25 25 24 25 25 25 25 25 25 25 24 24 24 24 24 24 24 24 24 24 24 23 23 23 23 23 22 22 22
32 29 29 31 32 33 33 33 33 33 34 34 32 30 28 28 29 33 34 32 33 31 29 30 29 29 29 29 29 29 29 28 28 27 27 27 27 27 27 27 27 27 27 26 26 26 26 26 26 26 26 25 25 25 25 25 25 25 25 25 25 25 25 25 25 25 25 24 24 24 24 24 24 24 24 24 24 24 23 23 23 23 22 22 22 22
30 29 31 32 31 32 33 32 32 33 34 33 32 29 27 28 30 32 33 33 33 31 29 29 29 28 29 29 29 29 29 29 28 28 27 27 27 27 27 27 27 27 26 26 26 25 26 26 25 25 25 25 25 25 25 25 25 25 25 25 25 25 25 25 25 25 25 25 24 24 24 24 24 24 24 24 24 23 23 23 23 23 22 22 22 22
26 29 32 32 31 32 32 32 32 32 32 32 31 28 26 29 30 28 30 33 33 32 29 29 28 28 29 29 29 29 29 29 29 28 28 27 27 27 27 27 27 26 26 26 26 25 25 26 25 25 25 25 25 25 25 25 25 25 25 25 25 26 26 25 25 25 25 25 24 24 24 24 24 24 24 24 23 23 23 23 23 23 22 23 22 22
27 31 33 31 31 33 32 32 33 31 30 31 32 29 28 30 30 29 31 32 32 31 30 29 26 26 28 29 29 29 29 30 29 29 28 27 27 27 27 27 27 27 26 26 26 26 25 25 25 25 25 25 25 25 25 25 25 25 25 25 25 26 26 25 25 25 25 24 24 24 24 23 23 23 23 23 23 23 23 23 23 23 23 22 22 22
30 32 32 32 32 32 32 32 32 31 28 28 32 32 32 33 32 32 32 31 28 26 29 29 23 23 27 28 28 29 29 29 29 29 28 28 27 27 27 27 27 27 27 26 26 26 25 25 25 25 25 25 25 25 25 25 25 25 25 26 26 26 26 25 25 25 25 24 24 24 23 23 23 23 23 24 24 24 24 23 23 23 23 22 22 22
31 32 32 32 32 32 32 31 32 33 28 26 31 34 34 34 33 32 31 29 24 23 29 31 24 22 25 27 28 29 29 29 29 29 28 28 27 27 27 27 27 27 26 26 26 26 26 25 25 25 25 25 25 25 25 26 26 26 26 26 26 26 26 25 25 25 25 24 24 24 24 23 23 23 23 24 24 24 24 23 23 23 23 22 22 22
32 33 32 33 33 32 31 30 32 34 29 27 33 36 35 35 33 32 31 28 26 27 29 30 27 23 22 25 29 29 28 29 29 29 29 28 28 27 27 27 27 27 26 26 26 26 26 25 25 25 25 25 26 26 25 25 26 26 26 26 26 26 26 25 25 25 25 24 24 24 24 24 23 23 24 24 24 24 24 23 23 23 23 22 22 22
33 33 32 33 32 31 31 31 33 34 31 31 35 35 35 35 34 33 31 28 28 27 23 25 27 24 22 25 29 29 28 28 28 29 29 28 28 28 27 27 27 27 27 26 26 26 26 25 25 25 25 25 26 26 25 26 26 26 26 26 26 26 25 25 25 25 25 25 24 24 24 24 23 24 24 24 24 24 23 23 23 23 22 22 22 22
34 33 33 33 32 31 32 33 33 33 33 35 35 34 34 34 34 33 31 27 26 24 22 23 25 23 22 24 26 27 27 27 29 29 29 29 28 28 28 28 27 27 27 26 26 26 26 25 25 25 25 25 25 25 25 26 26 26 26 25 25 25 25 25 25 25 25 24 24 24 24 24 24 24 24 24 23 23 23 22 22 22 22 22 21 22
33 34 34 33 33 33 34 34 33 34 35 35 35 34 33 33 32 31 30 27 24 22 22 23 25 24 23 23 25 27 28 29 30 30 29 29 29 28 28 28 28 27 27 26 26 26 26 26 26 25 25 25 25 25 25 25 25 25 25 25 25 25 25 25 25 25 25 25 24 24 24 24 24 24 24 23 23 23 22 22 22 22 22 22 21 21
33 33 33 34 35 35 35 34 34 34 34 34 34 33 29 28 28 27 26 25 23 22 23 25 26 25 22 23 26 29 31 31 31 30 30 29 29 28 28 28 28 27 27 27 26 26 26 25 25 25 25 25 25 24 24 25 25 25 25 25 25 25 25 25 25 25 25 25 24 24 24 24 24 24 24 24 23 23 23 22 22 22 22 21 21 21
31 32 33 34 35 36 34 33 32 33 33 33 32 29 25 23 24 23 23 23 22 22 25 26 26 24 23 26 29 30 31 31 31 31 31 30 30 29 28 28 28 27 27 27 26 26 26 25 25 25 24 24 24 24 24 24 24 24 24 24 24 24 24 24 25 25 25 24 24 24 24 24 24 24 24 24 24 23 23 23 22 22 21 21 21 21
27 31 33 33 33 35 34 31 29 30 32 32 29 26 23 23 22 22 22 22 22 23 25 26 26 23 23 28 32 31 31 32 32 32 32 31 30 29 29 28 28 28 27 27 26 26 26 25 25 25 25 24 24 24 24 24 24 24 24 24 24 24 24 24 24 25 24 24 24 24 24 24 24 24 24 24 24 23 23 23 22 22 22 21 21 21
23 25 30 32 32 34 35 33 31 32 33 32 33 30 25 23 23 23 22 22 22 23 24 25 25 23 23 29 34 33 32 32 32 32 32 31 31 30 29 29 28 28 27 27 27 26 26 26 25 25 25 24 24 24 24 24 24 24 24 24 24 24 24 24 24 24 24 24 24 24 24 24 24 24 24 24 24 23 23 23 22 22 22 21 21 21
23 23 31 33 33 35 35 34 35 34 31 31 34 31 26 27 27 24 23 24 23 23 23 23 24 25 28 32 34 32 32 32 32 32 32 31 31 30 29 29 28 28 27 27 27 27 26 26 25 25 25 25 25 24 24 24 24 24 24 24 24 24 24 24 24 24 24 24 24 24 24 24 24 24 24 24 23 23 23 23 22 22 22 21 21 21
23 24 33 34 33 35 35 35 36 33 30 30 29 27 28 32 31 25 22 24 23 23 23 23 24 26 29 31 32 31 31 32 32 32 32 31 30 29 29 29 28 28 27 27 27 27 26 26 25 25 25 25 25 25 24 24 24 24 24 24 24 24 24 24 24 24 24 24 24 24 24 24 24 24 24 24 23 23 23 23 22 22 22 21 21 21
26 25 31 34 32 34 35 35 36 35 34 31 27 29 31 31 31 27 23 23 23 23 23 23 23 24 24 27 31 31 31 31 31 32 32 31 30 29 29 29 28 28 28 27 27 27 26 26 25 25 25 25 25 25 25 25 25 25 24 24 24 24 24 24 24 24 24 24 24 24 24 24 24 25 24 24 24 23 23 22 22 22 22 21 21 21
29 24 28 34 33 34 36 34 32 34 36 33 31 33 32 26 25 25 23 23 22 22 23 23 23 24 23 26 31 32 31 30 30 30 31 30 30 29 29 29 29 28 28 27 27 27 26 26 25 26 26 26 26 25 25 25 25 25 24 24 24 24 24 24 23 23 23 24 24 24 24 24 25 25 24 24 23 23 23 22 22 22 22 21 21 21
31 26 25 32 34 34 35 31 28 29 33 34 33 34 32 28 26 25 24 24 23 22 23 23 23 23 26 30 34 36 34 30 29 30 30 30 30 30 30 29 29 28 28 27 27 27 27 26 26 26 26 26 26 25 25 25 25 25 24 24 24 24 24 24 23 23 23 23 24 24 24 25 24 24 24 24 23 23 23 22 22 22 22 21 21 21
32 27 24 29 33 31 30 30 30 30 31 31 30 29 29 29 28 27 26 24 24 23 22 23 23 23 29 33 35 37 34 29 29 30 30 30 30 30 30 30 29 28 28 28 28 27 27 26 26 26 26 26 26 26 25 25 25 25 25 24 24 24 24 23 23 23 23 23 23 24 24 24 24 24 24 23 23 23 22 22 22 22 22 22 21 21
30 28 24 25 27 26 28 33 35 34 33 32 30 29 29 29 27 25 24 24 25 24 23 24 22 24 31 33 34 37 33 29 29 30 30 30 30 30 30 30 30 29 29 28 28 28 27 27 26 26 26 26 26 26 26 25 25 25 25 24 24 24 24 23 23 23 23 23 23 24 25 25 24 24 23 23 23 23 22 22 22 22 22 22 21 21
32 31 26 24 26 28 31 34 34 33 35 34 33 33 33 31 27 24 23 23 24 23 23 24 22 26 33 33 33 35 32 29 30 30 30 30 30 30 30 30 30 29 29 29 28 28 28 27 26 26 26 26 26 26 26 26 25 25 25 25 24 24 24 24 23 23 23 22 23 24 25 24 23 23 23 23 23 23 22 22 22 22 22 22 22 21
32 30 25 23 27 30 32 34 33 34 34 32 33 34 33 32 31 29 27 26 25 23 23 23 22 26 32 31 30 32 30 29 29 29 30 30 29 30 30 30 30 30 30 30 29 29 28 27 26 26 26 26 26 26 26 26 25 25 25 25 24 24 24 24 23 23 22 22 23 24 23 22 22 22 23 23 23 23 22 22 22 22 22 22 22 22
29 28 26 23 24 25 27 29 30 30 32 31 32 34 33 34 33 31 29 27 25 23 24 24 22 26 31 31 30 30 29 29 30 29 30 30 30 30 30 30 30 29 30 30 29 29 28 27 27 26 25 26 26 26 26 26 26 25 25 25 25 24 24 24 23 23 22 22 22 22 21 21 21 22 23 23 23 23 22 22 22 22 22 22 22 22
30 29 27 23 22 22 23 24 25 27 30 31 33 34 33 34 33 30 27 25 24 23 24 24 23 26 32 33 31 30 29 29 30 29 30 30 30 30 30 30 30 29 29 29 29 28 28 27 27 26 25 25 26 26 26 26 26 25 25 25 25 25 24 24 23 23 22 22 21 19 19 21 23 23 23 23 23 23 23 23 22 22 22 22 22 22
31 30 29 26 24 24 24 25 29 30 29 29 30 32 33 33 33 31 26 24 24 24 23 25 26 26 30 33 33 31 30 30 30 30 30 30 30 30 30 29 29 29 29 29 29 28 28 27 27 26 25 25 26 26 26 26 26 25 25 25 25 25 24 24 23 23 22 21 20 18 19 22 23 23 22 22 23 23 23 23 22 22 22 22 22 22
31 28 29 29 27 28 29 30 31 31 29 29 30 31 32 32 32 30 26 26 27 24 22 26 28 26 28 33 33 32 31 31 31 30 30 30 30 29 29 29 29 29 29 29 28 28 28 27 27 26 25 25 26 26 26 26 26 26 25 25 25 25 24 24 23 22 21 20 19 19 20 21 22 22 21 21 22 23 22 23 22 22 22 22 22 22
31 27 28 29 28 30 32 32 32 32 31 32 31 31 32 32 30 29 28 29 29 25 25 28 28 27 31 34 33 33 32 32 32 31 30 30 29 29 29 29 29 29 29 29 28 28 28 27 27 27 26 25 25 26 26 26 26 25 25 25 25 25 24 23 22 21 21 20 19 19 20 20 20 21 20 21 22 22 22 22 22 22 22 22 22 23
31 29 31 30 28 29 31 32 33 32 31 31 31 32 33 32 31 31 31 31 31 30 31 32 29 29 33 34 33 33 32 31 31 30 30 30 29 29 29 29 29 29 29 28 28 27 27 27 27 26 25 24 25 25 25 25 25 25 25 25 25 24 24 23 22 21 21 20 19 20 20 19 20 20 20 20 21 21 22 22 22 22 22 22 22 23
29 28 31 31 26 27 30 32 32 32 30 29 30 32 33 31 31 32 31 30 30 30 31 31 28 29 32 33 32 32 30 30 31 30 30 30 29 29 29 28 28 29 28 28 28 27 27 27 26 26 26 24 24 25 25 25 25 25 25 25 25 24 23 23 22 21 20 19 19 19 20 19 19 19 20 20 20 21 22 21 20 21 22 22 22 22
30 29 30 29 24 24 29 31 30 31 30 27 28 30 31 30 29 30 31 31 30 30 29 26 25 29 32 31 31 30 30 30 31 31 31 30 29 29 29 29 29 29 28 28 28 27 27 26 26 27 26 24 24 25 25 25 25 25 25 25 24 23 23 22 22 20 19 19 19 19 20 19 19 19 19 19 20 21 22 21 20 21 21 21 22 22
32 30 28 27 23 23 28 30 29 29 26 24 27 30 32 32 31 31 32 32 32 32 30 28 28 31 31 31 31 30 30 30 30 30 29 29 29 28 28 29 29 28 28 28 27 27 27 28 27 26 24 24 25 26 26 26 25 25 24 24 23 23 22 22 21 20 19 19 19 20 19 19 18 19 19 19 20 22 22 21 20 20 20 21 22 22
30 29 28 27 24 23 27 29 28 25 23 24 29 32 32 32 32 31 30 29 30 30 30 30 31 31 30 31 32 31 30 30 30 29 29 29 29 29 28 29 29 29 29 29 28 28 28 28 26 24 25 26 26 27 26 26 25 25 24 24 23 23 22 21 20 20 19 19 19 19 19 19 19 19 19 19 20 21 22 21 20 19 19 20 21 22
30 29 28 27 25 24 26 26 24 22 24 28 31 31 31 31 31 30 29 29 28 28 29 30 30 29 30 31 31 31 31 31 30 31 31 30 30 31 30 30 30 31 31 31 31 30 29 28 25 23 24 26 26 26 26 25 25 24 24 24 23 22 21 20 19 19 19 18 18 19 19 19 19 20 19 19 19 20 20 20 20 20 19 19 20 21
31 29 27 26 25 24 24 23 23 24 27 31 31 31 30 30 32 31 29 29 29 27 28 29 28 28 29 29 28 29 30 30 30 31 30 29 30 31 32 33 32 32 33 33 33 32 30 28 26 24 24 25 26 25 25 24 24 23 23 23 22 22 21 20 19 18 18 18 18 18 19 19 19 19 19 19 19 19 20 21 20 20 19 19 20 21
30 29 28 26 24 24 23 22 23 25 26 28 30 30 29 28 31 32 28 27 29 28 27 28 28 27 27 28 28 28 28 30 30 30 29 29 29 29 31 32 32 32 33 31 29 28 26 26 26 25 26 26 25 25 24 23 23 22 21 21 21 20 20 19 19 18 18 18 18 18 18 18 18 18 18 19 19 19 20 20 20 20 20 20 20 21
28 28 28 26 24 24 23 22 23 23 22 26 29 30 29 26 28 32 30 28 29 28 27 27 28 28 28 28 28 29 30 31 31 31 31 30 29 29 29 29 29 29 27 24 23 23 23 24 25 25 26 25 24 24 23 22 22 21 20 19 19 20 19 19 19 18 18 18 18 18 19 18 18 18 18 19 20 20 20 20 20 20 20 20 20 21
28 27 28 26 24 23 23 22 22 22 23 27 29 29 28 26 28 31 29 26 28 28 27 27 28 28 29 29 29 31 31 31 30 31 30 28 27 28 28 27 27 25 22 21 22 22 22 23 23 23 23 23 22 22 22 22 21 20 19 19 19 19 19 19 19 18 18 18 19 19 19 18 18 19 19 19 20 20 20 20 20 20 20 20 21 21
28 28 27 25 23 23 23 22 22 23 24 27 28 27 26 27 29 29 25 24 27 27 26 27 29 28 28 28 29 30 30 30 30 29 27 26 25 25 25 25 25 24 22 21 22 22 22 22 23 21 21 22 22 21 21 21 21 20 19 19 19 19 19 19 19 19 19 19 19 19 18 18 19 19 20 20 20 19 19 19 20 20 19 20 20 21
25 26 25 23 22 23 23 22 22 23 26 27 26 25 26 28 29 27 23 25 27 26 25 27 27 27 27 28 28 28 28 28 28 27 26 26 25 24 23 22 22 22 22 21 21 21 21 21 21 21 20 21 21 21 20 20 20 19 19 18 18 18 19 19 19 19 19 19 19 19 18 18 19 20 20 20 19 19 19 19 19 19 19 20 20 20
23 24 23 23 22 22 22 22 21 23 26 26 25 25 26 27 26 25 25 26 26 25 25 26 26 26 27 27 27 27 27 27 28 27 26 25 25 24 23 21 21 21 21 20 20 20 19 20 20 20 19 20 20 20 20 20 19 19 18 18 18 18 19 19 19 19 19 19 19 19 19 19 19 19 19 19 19 19 20 20 20 20 20 21 20 20
23 22 22 22 22 22 22 22 21 23 25 26 25 26 27 26 25 26 26 26 25 25 25 25 26 26 26 26 26 26 26 26 26 26 25 24 24 23 22 22 22 22 20 20 19 19 19 19 19 19 19 19 19 19 19 19 19 18 18 18 18 19 19 19 19 19 19 19 19 19 19 19 19 19 19 19 20 20 20 20 20 20 21 21 21 19
23 23 22 22 23 22 22 22 23 24 25 24 25 25 25 24 25 26 25 25 25 24 24 24 25 25 26 27 26 26 26 26 25 25 25 25 25 24 23 22 21 20 19 19 19 19 19 19 18 19 19 18 18 18 18 18 18 18 18 18 18 19 19 19 19 19 19 19 19 19 20 20 20 20 20 20 21 21 21 20 20 20 20 20 20 18
24 24 23 23 22 22 22 23 24 24 24 24 24 24 23 23 24 24 24 23 24 24 23 24 24 24 25 26 26 26 27 27 26 26 26 26 26 25 23 22 21 20 20 19 19 19 19 19 18 18 18 18 18 18 18 18 18 18 18 18 19 19 19 19 19 19 19 19 19 19 20 20 20 20 20 20 21 21 21 20 20 20 19 19 19 18
23 24 24 23 22 23 23 23 23 23 23 23 24 23 23 23 23 23 23 23 23 23 23 23 23 24 24 25 25 25 25 25 26 26 25 26 25 24 23 22 21 20 19 19 19 19 19 18 18 18 17 17 17 18 18 18 19 19 18 18 19 19 19 19 19 19 19 19 19 20 20 20 20 20 19 19 20 20 20 20 20 19 18 18 18 17
24 23 24 23 23 23 24 23 23 23 23 23 23 23 23 23 23 23 23 23 22 23 23 23 23 24 23 24 25 25 25 25 26 26 25 26 26 25 26 26 24 20 19 19 19 19 19 18 18 17 17 17 17 18 18 19 19 19 19 19 19 19 19 19 19 19 19 20 20 20 20 20 20 20 19 19 19 19 19 19 19 19 18 18 17 17
24 24 23 23 23 23 23 23 22 22 22 22 22 23 23 23 23 23 23 22 22 22 22 22 23 23 23 23 24 24 24 24 25 26 26 26 26 26 27 26 23 20 19 19 19 19 18 18 17 17 17 17 17 18 18 19 19 19 19 19 19 19 19 19 19 19 19 19 19 19 19 19 19 19 19 19 19 18 18 18 18 18 18 18 18 18
23 24 23 22 22 22 22 22 22 21 21 22 21 22 22 22 22 22 22 22 23 23 23 22 22 22 22 22 22 23 23 23 23 25 25 26 26 26 26 23 20 19 20 20 19 19 19 18 18 18 17 17 18 18 19 19 19 19 19 19 19 19 19 18 18 18 18 18 19 19 19 19 20 20 19 19 18 17 17 17 17 17 18 18 18 19
21 23 23 22 22 22 22 22 22 22 22 21 21 22 22 22 23 23 22 22 22 23 23 23 22 22 22 21 21 22 22 22 22 23 24 25 25 25 24 21 18 19 20 20 19 19 19 18 18 18 18 18 18 19 19 19 19 19 19 19 19 20 20 19 19 19 18 19 19 20 21 20 19 18 18 17 17 17 16 16 17 18 18 18 18 18
19 21 22 23 22 22 22 23 22 22 22 22 21 22 22 22 23 23 22 22 22 22 22 22 23 23 22 21 20 21 21 22 21 21 23 24 23 21 20 19 18 19 19 19 19 19 19 19 19 18 18 18 18 18 18 19 19 19 19 20 20 21 21 21 21 20 20 20 20 21 20 19 18 17 17 17 17 17 17 17 17 17 17 17 17 17
Height
735 750 758 757 758 754 752 752 751 751 754 759 765 767 768 772 771 762 757 753 752 769 779 774 776 780 780 779 777 776 777 780 783 783 783 783 783 783 783 783 783 784 782 781 783 785 786 788 790 792 794 797 799 800 802 804 805 807 809 810 811 813 815 816 817 818 819 820 821 822 823 824 825 826 826 827 828 828 829 830 830 830 831 832 833 833
737 754 756 748 748 746 745 747 748 751 754 757 762 767 769 771 768 759 756 754 751 766 779 775 778 781 777 777 775 774 779 780 779 781 781 780 780 779 779 780 780 779 779 780 782 783 785 787 788 790 792 794 797 798 800 802 803 806 807 808 810 811 813 814 815 816 817 818 820 821 822 823 824 825 825 826 826 827 828 828 829 829 830 831 832 832
749 754 746 739 742 742 744 747 750 753 754 757 761 767 772 769 766 760 755 755 754 766 779 778 781 783 777 775 774 773 774 774 772 773 775 776 778 779 779 779 778 779 780 780 781 781 783 785 787 789 790 792 794 796 798 800 802 804 805 807 808 809 811 812 813 814 816 817 819 820 821 822 823 824 824 825 825 826 827 827 828 828 829 830 831 832
758 750 736 734 739 743 748 748 751 755 756 758 761 767 772 766 767 769 763 761 759 764 776 780 784 786 781 780 777 773 771 770 769 769 770 772 774 775 774 774 776 778 780 780 780 780 781 783 785 787 788 790 792 794 796 798 800 802 803 805 806 808 809 810 812 813 815 816 818 819 820 821 822 823 824 824 824 825 825 826 827 827 828 829 830 831
752 739 729 734 740 743 749 750 752 758 762 760 758 762 766 762 764 767 764 764 764 769 773 780 796 796 787 789 785 775 773 772 770 771 773 772 771 770 770 772 773 774 775 777 778 778 779 781 783 784 786 788 790 792 793 795 797 799 801 803 804 806 807 808 810 812 814 815 816 818 819 820 821 821 822 822 823 823 824 825 825 826 827 828 829 829
744 732 727 736 741 742 747 751 751 755 762 762 755 752 754 754 758 762 763 766 778 788 777 779 808 810 790 789 788 779 777 776 773 774 775 773 771 772 774 773 772 772 772 773 774 775 776 778 780 782 784 786 787 789 790 792 795 797 799 801 803 804 805 807 809 811 812 813 815 816 817 818 819 819 820 820 821 822 823 824 824 826 826 827 828 828
736 728 728 735 740 743 748 750 746 746 761 766 751 741 744 748 755 761 762 769 784 790 772 768 796 808 796 789 785 780 781 778 775 774 772 771 771 771 772 772 771 771 771 771 772 772 774 775 778 780 781 782 784 786 788 791 793 795 797 799 801 802 803 805 807 809 810 811 812 814 815 816 817 818 818 819 820 821 822 823 824 825 826 826 827 828
728 728 731 733 737 744 749 750 742 739 757 761 740 734 742 746 753 759 760 766 771 772 772 771 779 797 800 787 778 779 783 782 778 775 771 768 768 768 768 768 768 768 768 770 771 771 772 772 774 776 777 779 781 784 786 788 790 793 795 797 798 800 802 803 805 807 808 809 810 812 813 814 815 817 818 819 819 820 821 822 823 824 825 825 826 827
721 729 732 732 739 745 743 741 734 735 749 746 730 732 739 741 748 752 756 764 762 770 790 786 777 795 801 783 775 779 784 785 779 772 767 764 764 764 764 764 764 764 764 765 767 768 768 769 770 772 774 777 779 781 784 785 788 790 792 794 796 798 799 801 803 805 806 807 809 810 811 813 814 816 817 818 818 819 820 821 822 823 823 824 825 825
719 720 721 726 737 739 734 730 728 734 740 731 726 734 737 740 745 749 757 764 766 780 797 789 777 792 798 785 781 785 786 782 772 763 759 758 759 759 759 760 760 761 761 762 762 763 764 766 768 771 773 776 778 779 781 783 785 788 790 792 793 795 797 799 801 802 804 805 807 808 810 811 813 814 816 816 817 818 819 820 821 821 822 823 824 824
716 710 711 718 724 724 722 723 723 727 727 724 730 739 744 748 748 752 758 762 778 792 790 779 771 780 793 789 781 778 770 761 757 757 755 754 755 754 754 755 756 758 759 759 760 760 762 764 767 769 772 773 775 778 780 781 783 785 787 789 791 792 794 796 798 800 802 803 805 806 808 809 811 812 814 814 816 817 818 819 819 820 821 822 823 823
719 717 716 712 708 710 717 722 721 720 721 728 737 743 753 760 759 765 767 769 790 797 779 768 767 776 790 784 770 760 746 740 746 748 748 748 748 748 749 750 751 753 755 756 758 760 762 764 766 768 769 771 774 776 778 779 781 783 785 786 788 790 792 794 796 798 799 801 803 804 806 807 809 810 811 812 813 815 816 817 818 819 820 821 821 822
726 722 717 711 704 704 718 729 727 724 726 734 742 749 765 777 780 786 787 786 793 785 766 763 768 779 782 764 752 750 740 735 736 733 733 736 737 740 744 745 746 749 752 754 756 758 759 760 762 764 766 769 771 773 775 777 779 781 782 784 785 787 789 791 793 795 797 798 800 802 803 805 806 808 809 810 811 813 814 815 816 817 818 819 820 820
736 726 715 717 713 703 712 730 736 734 733 738 744 752 767 782 794 801 799 798 794 775 760 760 769 781 777 753 741 741 733 725 722 720 720 722 727 733 736 739 742 746 748 750 752 754 755 756 757 760 763 765 767 769 772 774 776 778 780 781 783 784 786 788 790 792 794 796 797 799 801 803 804 805 807 808 810 811 812 813 814 815 816 817 818 819
747 743 721 718 717 705 707 718 723 726 729 732 732 739 754 764 777 789 789 788 785 772 766 770 774 778 769 744 726 722 718 714 713 713 715 718 723 728 731 736 740 743 745 747 749 750 750 751 754 757 760 762 764 766 768 770 773 775 776 778 779 780 782 784 787 789 791 793 795 797 799 800 802 803 805 806 808 809 810 811 812 813 814 815 816 817
743 742 715 706 706 701 706 706 704 717 730 729 725 734 746 743 746 763 770 766 765 768 773 774 767 756 743 726 716 715 714 714 716 716 718 724 725 728 734 737 738 740 742 743 745 746 746 748 752 755 757 759 761 763 765 766 768 770 772 774 775 777 779 781 783 786 788 790 792 794 797 798 800 802 803 804 806 807 808 809 810 811 812 813 814 815
739 735 709 702 703 697 701 700 696 712 727 728 730 736 734 724 727 749 764 761 761 769 772 768 757 745 738 728 719 720 720 718 721 720 720 724 725 729 734 734 735 736 737 739 739 740 742 745 748 751 753 755 757 759 760 761 763 765 767 769 771 773 776 778 780 782 785 787 790 792 794 796 798 799 800 802 803 805 807 808 810 811 812 813 813 814
728 732 711 703 709 697 690 695 695 696 706 721 730 725 720 724 728 738 757 769 775 776 767 761 755 749 751 743 726 725 727 724 722 718 719 723 726 729 729 729 730 730 731 733 734 736 739 741 744 746 749 751 752 753 755 756 758 761 764 765 767 770 771 773 776 779 782 784 787 789 791 794 796 797 798 800 802 804 805 807 809 810 811 812 813 813
715 731 718 701 706 698 686 699 708 697 693 706 713 706 714 737 743 742 753 766 776 781 770 760 756 750 748 739 724 723 726 724 722 720 720 723 724 724 723 724 725 726 730 732 732 735 737 738 741 743 745 747 749 751 752 754 757 760 762 763 765 766 767 770 774 777 780 782 784 787 789 792 793 795 797 798 800 802 804 806 808 809 811 812 813 813
708 729 728 704 698 698 694 706 718 711 700 700 705 706 712 725 733 736 743 747 757 774 773 763 758 748 735 724 715 711 714 719 723 722 720 718 716 715 717 719 722 725 728 729 730 731 732 734 736 738 740 742 744 747 750 753 757 758 760 762 764 765 767 770 773 775 777 780 782 785 788 790 792 793 796 798 800 801 803 805 806 808 810 811 812 813
705 722 729 713 701 705 708 707 708 711 711 711 716 721 719 719 723 728 735 738 741 756 766 763 760 743 719 711 707 701 705 714 716 714 713 711 710 711 713 715 719 721 723 724 725 726 727 730 732 734 737 739 742 746 749 752 754 756 758 760 761 763 766 768 770 772 775 777 780 782 785 787 790 792 796 798 800 801 802 803 805 806 808 809 810 811
706 715 723 720 714 715 709 695 690 696 701 706 712 716 714 716 724 734 744 741 732 740 749 753 756 736 708 703 700 694 702 710 708 707 708 708 709 710 710 711 713 716 717 718 719 720 723 726 728 732 735 739 742 745 747 749 751 754 756 757 758 761 762 764 766 769 772 774 776 778 780 783 786 791 796 799 800 801 802 802 803 804 805 806 808 809
693 705 717 720 713 710 701 687 686 688 688 694 698 699 703 707 715 730 743 739 731 738 741 744 750 730 702 699 697 692 698 703 703 704 706 707 707 706 707 707 709 711 711 712 714 716 719 722 725 729 732 736 738 740 743 745 747 749 750 752 755 757 758 759 763 765 768 770 771 774 777 781 787 792 796 799 800 801 801 801 802 803 803 804 806 807
688 701 715 719 709 700 692 684 683 684 689 698 697 692 696 701 702 710 720 723 727 736 738 746 754 731 702 699 698 694 698 700 701 702 703 706 705 704 705 705 706 707 707 708 710 713 716 720 724 728 730 732 734 736 739 741 743 745 746 749 751 752 753 757 761 764 765 766 768 772 778 785 793 796 797 798 799 799 800 801 802 802 802 803 804 804
693 703 710 722 726 719 710 704 698 693 694 699 697 693 691 693 696 703 710 717 726 731 730 740 749 728 703 699 698 696 700 700 699 699 699 702 702 702 703 702 703 705 705 707 710 713 716 719 721 723 725 727 729 731 734 736 739 740 742 744 745 746 750 754 758 761 761 763 767 773 779 786 793 795 794 795 796 797 799 800 800 800 800 801 802 803
687 697 700 717 735 738 731 722 710 702 698 695 692 692 690 690 695 702 711 720 727 732 729 729 731 720 704 699 697 697 700 700 699 699 698 699 699 699 700 700 702 703 704 706 709 711 713 714 717 718 719 722 724 726 729 731 734 735 737 739 741 743 747 751 754 757 759 764 770 775 780 784 786 788 790 792 793 795 797 798 799 800 800 801 801 801
681 689 691 700 712 717 715 706 696 693 695 695 692 690 691 690 690 696 709 717 720 729 730 718 713 714 709 701 698 699 700 699 698 699 698 698 698 697 697 698 699 700 701 703 706 708 711 712 714 715 716 718 720 723 725 727 729 731 732 734 737 740 743 747 752 757 762 768 772 775 780 784 786 789 794 795 794 796 796 797 798 799 800 801 800 799
683 690 688 690 692 692 692 688 687 689 691 691 690 688 689 690 691 696 704 707 710 724 729 716 709 712 707 700 697 697 698 697 695 694 694 693 693 694 695 697 698 700 701 702 705 707 709 711 711 712 713 715 718 721 722 724 726 727 729 731 734 738 741 747 753 758 762 766 768 770 775 781 786 791 796 798 798 798 797 797 796 796 798 799 798 797
680 688 686 688 687 683 681 680 681 686 688 687 686 685 685 688 693 694 694 696 701 710 711 705 707 708 699 694 692 688 687 687 685 685 685 686 690 693 695 698 700 701 701 702 704 705 707 709 709 710 711 712 715 718 720 722 725 726 728 731 733 736 741 746 751 754 757 759 761 763 767 774 783 789 792 795 796 796 795 795 795 793 793 794 795 795
672 681 679 685 688 682 679 677 675 681 687 686 685 683 681 684 687 685 686 690 691 692 691 693 702 702 689 684 682 678 678 679 679 682 684 686 691 693 696 698 699 699 699 700 702 704 705 706 707 708 710 712 714 716 718 721 722 724 727 729 732 735 740 744 746 748 750 753 756 760 765 773 781 786 787 788 789 791 792 793 793 790 789 790 792 792
670 678 675 679 690 688 680 676 675 678 685 686 683 680 679 683 685 682 685 692 692 692 692 695 704 700 684 677 678 678 679 682 683 685 686 686 689 691 694 697 697 697 699 700 701 703 704 706 708 709 711 712 713 715 717 719 721 723 725 728 731 735 738 740 741 744 747 751 756 760 765 773 778 781 783 783 784 786 787 788 788 787 787 787 788 789
670 678 676 679 693 691 678 677 679 678 683 688 684 679 679 684 687 683 681 685 688 691 697 704 708 699 682 677 681 683 683 685 685 684 684 686 687 690 693 694 696 697 698 699 701 703 704 706 707 709 709 711 712 714 716 718 721 724 726 728 732 735 737 738 740 743 747 751 755 757 761 768 772 773 773 774 776 778 778 779 780 782 783 784 785 786
669 676 677 682 694 690 677 676 679 682 695 699 685 674 674 677 678 678 677 678 678 680 689 697 693 683 677 677 682 685 686 686 687 686 686 687 688 690 692 693 694 696 697 699 701 702 703 704 704 705 706 708 710 711 713 716 719 721 724 727 730 733 735 736 738 741 744 745 748 749 753 760 764 766 766 766 768 770 770 773 776 778 780 781 783 784
671 675 677 680 686 685 678 675 680 696 708 698 674 663 666 669 671 677 683 684 681 679 680 680 677 674 676 676 677 681 683 683 684 685 685 686 687 690 692 692 693 694 695 698 699 699 700 700 701 702 702 704 705 706 709 712 714 717 720 722 725 727 729 732 734 736 739 741 742 744 748 752 756 759 761 761 763 765 768 771 773 776 778 780 781 781
671 674 679 678 679 682 681 682 697 711 702 678 665 663 663 663 665 674 683 684 683 684 681 677 677 675 673 672 672 674 676 676 679 680 680 682 683 685 689 690 690 692 693 695 696 697 698 698 699 700 700 701 702 704 707 709 710 713 716 718 721 723 726 728 731 735 739 741 742 744 747 749 751 752 754 758 763 766 769 771 772 773 776 777 778 778
667 673 677 679 683 685 685 690 702 703 686 670 668 668 666 666 664 669 683 686 681 683 683 679 679 677 675 675 674 674 674 675 678 680 680 681 681 680 684 686 687 689 690 690 692 693 693 694 695 696 698 699 701 703 705 707 708 711 713 715 718 721 723 726 729 732 735 736 738 742 744 746 748 751 755 761 766 769 770 770 769 770 772 774 775 775
663 671 674 678 686 686 687 694 695 691 688 683 677 672 673 677 669 664 681 690 680 677 682 682 681 680 678 677 677 676 675 678 685 687 682 681 681 680 681 682 683 686 687 688 690 691 692 694 695 696 698 699 700 702 703 705 707 709 712 715 718 720 722 724 726 728 731 732 735 740 742 744 748 754 760 764 765 766 767 766 766 767 769 771 772 772
662 669 672 676 685 685 688 698 702 706 706 694 679 670 669 674 668 657 672 689 682 676 682 683 682 681 678 679 680 676 675 685 696 693 682 679 680 680 681 683 683 685 687 688 691 692 694 696 697 698 698 699 700 702 702 704 706 709 712 715 717 719 721 722 724 726 729 730 732 736 740 743 748 754 759 762 762 763 763 763 764 765 766 768 768 769
666 671 670 673 684 686 686 694 705 713 707 688 678 672 667 670 665 659 679 698 688 678 682 683 682 681 677 678 679 676 680 695 702 695 685 682 681 680 682 684 685 687 688 689 691 693 695 697 698 698 699 699 701 702 703 704 706 708 711 713 715 717 718 720 722 724 726 727 729 734 739 743 748 752 755 756 757 759 760 761 761 762 764 765 766 767
674 675 674 678 687 690 691 697 703 705 697 684 677 675 670 664 659 672 703 709 688 680 683 680 681 683 681 680 681 682 688 697 699 694 688 685 685 684 684 686 688 688 689 691 694 695 697 697 697 698 698 699 700 702 703 705 706 708 710 712 714 715 716 718 720 721 724 727 729 735 739 742 746 748 750 752 754 757 760 761 761 763 764 765 765 765
691 688 689 692 694 692 694 703 706 700 690 681 678 674 668 662 667 691 711 700 682 683 685 680 681 684 683 683 685 688 692 692 690 690 688 686 689 690 689 690 691 691 692 694 697 698 698 698 698 698 699 699 701 702 704 705 706 707 709 710 712 714 716 719 721 723 726 729 731 735 739 741 743 745 747 751 755 758 759 760 760 761 763 763 763 763
705 700 697 697 702 702 701 705 711 705 687 678 677 671 664 670 686 699 696 685 684 689 686 683 685 684 683 685 687 688 690 687 685 688 689 690 694 695 695 695 695 695 697 699 700 700 700 700 700 700 701 701 702 703 704 705 705 706 708 711 714 717 720 722 724 726 728 730 732 735 738 740 743 745 749 752 754 755 756 755 755 755 756 757 757 758
702 704 704 702 704 708 707 709 715 709 689 676 677 674 670 679 690 690 685 685 690 690 688 688 687 684 685 688 689 690 690 689 689 691 692 694 695 696 697 698 698 699 701 701 702 702 701 702 702 701 701 702 703 704 705 706 707 709 713 716 718 720 722 724 726 728 729 731 733 735 738 740 743 746 748 749 750 751 751 750 751 751 751 751 752 754
694 702 708 707 704 707 711 713 710 701 687 678 679 682 683 684 683 681 685 691 691 690 692 693 691 688 687 688 691 693 692 693 695 695 695 696 696 697 699 699 700 702 703 703 703 703 703 703 702 702 702 703 705 707 708 709 711 714 716 718 719 720 722 723 725 727 729 731 733 735 737 739 741 743 744 745 747 748 747 747 748 748 748 749 750 752
687 688 692 699 704 704 706 706 699 692 688 683 680 684 686 685 683 683 687 691 693 693 693 695 696 695 691 690 693 694 693 694 695 696 696 698 698 699 700 700 700 701 702 703 704 704 704 704 704 704 705 706 708 710 711 712 713 715 716 718 719 721 722 724 725 728 730 732 734 735 737 738 739 741 742 743 744 744 744 744 745 746 747 748 748 750
681 679 680 692 701 699 697 698 694 692 693 688 683 684 685 687 688 687 686 691 695 694 693 695 697 697 694 693 695 697 698 697 696 696 698 699 700 701 701 699 699 699 700 701 703 704 705 706 706 706 707 709 711 711 712 713 714 715 716 718 720 721 723 725 727 729 731 733 734 735 736 738 739 741 742 743 744 743 742 743 743 745 746 746 748 750
679 677 679 688 697 699 702 702 698 696 697 694 690 688 687 688 690 688 689 693 694 693 693 694 695 696 697 696 697 700 701 699 698 698 698 697 697 697 696 697 698 698 701 703 704 706 707 706 706 707 708 710 711 712 713 714 714 715 717 719 720 722 723 725 728 729 730 732 733 735 736 737 738 739 741 742 743 743 742 742 743 745 746 746 747 749
680 678 684 691 695 697 702 703 700 700 701 697 695 694 691 691 690 689 690 692 692 692 694 693 694 698 700 700 702 703 703 702 701 700 696 695 695 695 695 697 699 700 703 705 706 707 707 707 707 708 709 710 711 711 713 713 714 716 718 719 720 722 723 725 727 729 730 731 732 735 737 738 737 737 738 740 741 741 741 741 743 744 745 745 746 748
679 679 687 695 699 701 703 703 702 705 707 704 701 699 697 695 694 693 693 693 691 690 691 692 696 699 701 702 703 703 704 705 703 700 698 697 696 696 697 698 700 702 704 705 706 707 707 707 708 708 708 708 709 710 712 713 715 716 717 718 720 721 723 725 727 729 732 734 735 736 737 737 735 735 736 738 739 740 741 742 743 744 744 745 746 747
688 688 688 693 702 705 703 699 699 705 712 711 706 703 701 699 697 697 698 698 696 693 692 693 696 697 699 701 701 703 706 707 704 703 702 700 699 699 699 699 701 702 703 704 706 707 707 707 707 706 706 707 707 709 711 713 715 716 716 717 719 719 720 723 724 726 729 732 734 734 733 733 734 735 736 738 738 739 740 741 742 743 744 745 745 746
693 694 688 688 695 697 693 691 694 699 706 709 705 703 703 699 697 699 701 701 700 697 694 695 696 697 700 703 702 704 709 710 707 706 704 702 701 700 698 699 700 701 702 704 705 705 705 705 705 705 705 706 707 709 711 712 714 715 716 716 717 717 718 720 720 721 723 726 729 731 731 732 734 735 736 737 737 738 739 740 741 743 743 744 745 746
Wind_Speed
5 4 3 5 6 7 8 9 9 7 6 6 2 3 6 9 10 11 9 11 13 8 5 9 10 12 15 17 17 16 15 14 13 13 12 13 12 12 13 12 13 13 12 15 20 23 26 29 31 32 31 31 32 31 32 32 32 33 32 31 30 30 29 28 28 27 26 23 21 20 20 19 17 16 15 14 15 15 15 13 12 13 11 7 6 5
4 6 8 9 9 9 9 8 6 4 4 4 3 2 4 5 6 5 8 12 11 6 4 5 8 12 14 16 16 15 15 15 14 15 14 15 14 13 13 14 14 11 9 11 14 19 23 26 28 31 31 31 31 30 31 32 33 33 32 32 31 31 30 29 28 28 28 25 22 21 21 21 19 17 16 15 15 15 15 13 11 11 8 4 5 5
3 6 10 10 8 8 7 5 6 6 6 4 2 2 3 4 2 1 5 13 10 4 4 7 9 9 11 14 14 15 17 14 14 16 16 16 14 12 13 13 13 11 9 9 11 15 21 23 24 27 29 31 32 32 32 33 33 32 32 32 32 31 30 29 28 29 27 25 23 22 20 19 18 16 16 15 15 14 14 13 11 10 7 6 6 6
4 5 10 8 7 7 6 4 7 5 4 4 3 4 3 3 3 2 4 10 6 2 5 7 4 3 5 7 9 13 13 11 13 15 14 14 15 15 15 13 13 13 12 12 11 12 17 21 22 24 27 30 31 31 32 33 32 32 32 32 32 31 30 28 28 28 26 23 22 21 19 17 16 14 14 13 13 13 12 11 10 9 9 9 8 7
5 7 6 5 8 9 7 5 7 5 4 4 5 5 3 4 5 3 4 9 3 5 5 8 4 3 4 7 8 9 9 9 10 12 11 12 13 14 14 13 13 14 14 13 13 12 14 18 21 24 27 28 29 30 32 33 33 32 32 32 32 31 29 28 28 27 25 23 22 20 18 16 14 14 13 12 12 13 11 10 10 10 11 11 9 7
8 8 3 4 6 8 8 6 6 7 4 3 4 8 7 8 6 3 9 10 4 2 4 8 4 5 4 8 10 7 9 10 8 10 13 12 12 11 10 12 12 13 13 13 14 13 14 18 22 24 26 27 28 31 33 34 34 33 33 32 31 30 29 28 27 25 24 24 23 21 19 18 15 14 14 13 13 14 13 11 11 12 12 11 10 8
6 6 5 6 6 7 7 7 6 8 5 3 6 9 9 8 7 9 12 9 5 4 7 9 6 4 3 7 11 8 10 12 8 10 14 12 12 12 11 12 12 12 12 12 12 13 14 18 20 22 26 28 29 31 33 34 34 34 33 32 31 30 29 28 26 25 24 24 24 22 21 20 18 16 14 12 12 13 13 12 12 12 13 12 11 9
6 8 7 8 6 6 6 5 6 9 7 4 6 7 8 8 8 10 12 9 5 3 3 6 3 2 3 8 10 9 9 11 11 12 13 13 13 13 13 13 13 13 13 12 12 12 14 18 22 24 27 30 31 31 32 32 33 33 33 32 32 31 30 28 27 26 25 25 24 23 22 21 20 17 14 13 13 13 13 13 13 13 13 13 11 9
5 9 9 8 6 5 5 5 7 10 6 7 7 7 7 9 10 10 10 8 5 5 4 6 3 3 4 5 5 9 9 12 15 16 16 15 15 15 15 15 14 15 14 13 14 14 15 19 24 27 28 30 32 31 32 33 34 34 33 33 32 32 30 29 29 28 28 27 24 23 22 21 20 16 14 15 15 15 15 15 15 15 14 14 11 8
3 8 9 8 6 6 6 6 8 10 7 6 4 4 2 4 7 7 7 5 4 5 7 11 9 4 4 3 5 7 8 13 16 17 17 16 16 16 15 16 15 14 13 14 15 15 18 23 27 27 28 30 31 32 34 34 34 34 33 33 32 32 31 30 30 30 29 28 26 24 23 22 19 16 17 17 16 17 18 17 17 16 15 14 11 8
5 4 4 6 6 6 7 7 8 11 10 4 2 2 1 3 2 0 1 4 5 4 8 14 16 9 4 4 5 8 12 18 17 14 14 14 15 16 16 15 15 14 13 13 14 14 19 25 27 27 28 30 30 31 32 33 33 34 33 33 33 33 32 32 31 30 30 29 28 25 24 23 21 19 20 20 18 19 20 18 17 15 14 13 11 9
6 6 4 3 5 7 6 6 6 9 9 4 2 3 1 4 4 4 4 3 5 5 7 13 15 10 6 5 7 13 18 20 18 16 17 18 19 18 16 15 15 14 13 13 13 13 15 18 21 25 27 29 29 29 31 33 33 33 33 33 33 33 33 33 32 32 31 30 29 27 25 24 22 21 22 21 20 20 20 18 15 14 14 13 12 10
5 7 6 4 4 6 6 4 4 4 5 5 4 4 3 3 2 0 2 1 4 5 6 11 13 8 7 7 10 17 19 18 18 18 20 21 21 18 16 15 14 13 13 13 13 13 13 14 17 22 25 26 28 29 31 32 32 33 34 34 34 34 34 35 34 33 32 31 30 28 27 26 24 23 23 22 21 20 18 17 16 15 16 15 13 11
4 6 7 6 4 4 8 5 4 4 4 6 6 6 5 3 2 3 4 1 3 6 5 9 12 5 4 5 9 16 21 22 21 20 20 20 21 19 18 17 14 13 14 13 13 13 13 13 16 22 25 26 28 30 32 32 33 33 33 34 34 35 35 36 36 35 34 33 32 30 29 27 26 26 24 22 21 20 18 18 18 17 17 16 14 12
6 6 8 8 4 4 8 7 7 6 4 6 6 6 6 5 5 4 4 4 5 5 2 3 7 6 4 6 10 17 23 22 20 20 16 13 14 15 15 15 14 14 14 13 13 14 14 15 19 23 25 27 29 31 33 34 34 33 34 35 36 36 36 36 37 36 35 35 33 31 30 29 28 27 24 22 21 20 19 18 18 17 17 16 14 13
6 7 7 7 6 6 7 6 7 5 4 4 4 5 5 6 6 3 4 6 5 2 0 2 4 5 5 6 5 9 17 16 15 15 11 8 9 11 12 12 13 13 13 13 14 15 15 16 20 23 25 28 30 31 33 34 35 36 36 36 37 38 38 37 38 37 37 37 34 33 32 31 29 27 24 23 22 21 20 19 18 18 17 16 14 13
5 6 7 5 7 9 9 7 7 7 5 2 4 4 5 6 8 3 2 1 3 3 3 2 4 4 2 5 6 2 9 11 10 13 13 11 11 12 12 12 13 13 14 14 15 16 15 15 20 25 27 28 30 31 34 37 39 40 39 38 39 39 37 38 39 38 38 38 36 34 33 32 30 27 26 25 24 22 20 19 18 17 16 15 14 14
5 4 7 6 9 10 9 8 8 7 8 5 5 7 4 2 3 3 2 1 3 3 4 2 5 4 1 4 5 3 5 10 12 15 15 11 11 13 14 14 15 15 15 16 16 15 13 15 20 25 28 31 34 36 38 40 41 41 40 40 40 39 40 41 40 39 39 38 37 36 35 34 31 28 27 26 24 22 20 19 18 17 16 15 14 14
4 3 7 6 10 8 4 6 8 8 6 5 4 5 5 2 1 1 3 3 2 3 3 3 4 4 4 5 4 3 8 10 11 12 12 13 14 15 15 15 16 15 13 14 14 13 12 14 19 25 28 31 34 36 37 39 38 37 38 39 39 41 43 41 39 38 38 38 38 37 37 35 31 29 28 26 24 21 20 20 19 18 17 15 14 15
4 4 6 5 6 5 3 5 7 8 5 1 1 3 3 3 5 4 3 4 4 3 3 3 3 3 6 6 7 10 11 11 11 11 13 17 18 17 15 14 14 13 12 13 13 13 13 14 21 28 30 32 35 37 36 35 34 35 37 36 37 39 39 37 37 37 38 38 37 37 36 34 31 30 29 27 23 21 20 20 19 18 17 15 15 16
3 4 5 6 4 3 3 5 8 8 5 3 3 4 3 2 2 2 2 3 4 4 3 3 3 5 6 5 8 11 9 11 14 15 15 16 16 15 14 13 13 12 13 13 13 14 14 15 21 28 31 32 33 33 32 32 33 34 34 34 36 37 37 36 37 38 38 37 36 37 37 35 32 31 30 27 23 21 19 19 20 19 17 15 16 17
4 4 6 6 5 4 6 7 7 9 9 8 7 7 6 5 4 3 3 2 2 4 5 4 4 7 6 4 7 8 7 9 13 15 14 13 14 14 13 14 14 13 14 15 14 14 13 13 18 25 27 27 27 28 30 32 32 32 33 35 36 36 37 38 39 39 37 36 36 38 39 37 34 32 29 26 23 21 20 20 21 20 18 17 17 17
4 4 5 8 7 6 9 9 7 9 10 8 8 8 7 5 6 6 5 3 1 1 2 4 3 7 6 4 6 7 6 9 11 12 12 12 13 14 14 14 14 14 16 15 14 13 12 13 18 22 24 26 27 29 31 32 33 34 35 36 35 36 39 40 39 38 37 36 38 41 41 36 33 31 29 26 24 22 21 21 21 20 19 18 18 18
4 4 5 7 7 6 8 8 6 4 5 4 6 6 6 6 6 7 5 5 4 3 2 3 3 6 6 4 4 6 5 7 10 11 12 11 11 13 14 14 14 15 15 14 13 11 9 10 14 16 19 23 26 28 30 31 33 34 35 35 35 38 41 39 36 36 35 36 40 41 36 28 24 26 27 27 25 23 22 21 21 21 20 19 18 19
5 3 5 5 6 6 6 6 6 3 3 4 4 5 7 8 8 5 3 4 3 4 6 5 4 6 6 4 0 2 4 7 10 11 13 12 12 12 13 13 13 14 14 13 11 9 9 10 11 13 17 23 26 28 30 32 33 34 35 37 37 39 40 36 34 35 36 38 39 34 27 25 24 27 29 28 26 24 23 22 22 22 20 19 19 20
7 5 6 7 8 8 7 7 6 3 2 3 3 6 9 10 11 6 3 5 4 4 5 6 5 6 7 5 1 1 5 8 8 9 10 10 11 12 12 11 12 12 13 13 12 10 10 11 12 13 17 23 26 28 30 32 34 35 36 38 39 38 37 35 35 35 36 35 29 25 26 29 32 31 31 30 28 25 24 23 23 22 20 20 21 21
3 4 8 10 11 10 9 9 7 4 4 4 6 8 10 11 12 8 5 5 6 4 4 6 7 5 5 6 5 5 7 9 9 9 10 10 10 12 12 12 12 12 12 13 12 11 11 11 12 14 17 22 26 28 30 32 34 35 35 37 38 37 35 35 33 30 28 24 21 25 29 31 31 29 28 28 27 24 24 24 23 21 19 21 23 22
3 3 9 13 15 15 13 13 9 4 6 8 9 10 11 10 11 10 7 7 7 7 5 9 6 10 9 9 9 9 8 8 9 11 13 13 12 11 11 12 12 11 11 11 11 11 11 12 12 13 15 20 24 27 29 31 33 34 35 36 36 35 33 30 26 23 24 24 25 31 34 31 27 24 24 25 25 25 25 25 22 20 21 24 24 22
4 5 7 10 15 17 16 16 14 8 6 8 8 11 13 12 12 13 11 9 10 9 8 8 9 12 12 11 12 13 13 13 13 13 12 10 10 10 10 11 11 12 12 12 12 11 11 12 12 12 13 18 22 24 26 28 29 30 32 32 32 32 29 24 24 25 29 31 31 37 39 32 26 25 25 26 27 28 28 26 23 22 26 29 26 23
5 6 7 9 12 14 15 17 16 12 10 9 9 11 12 13 16 17 12 10 12 10 8 10 13 13 12 13 15 14 11 9 7 6 6 8 9 10 11 12 13 13 14 13 11 10 11 11 11 10 10 13 18 21 23 25 27 29 30 30 30 30 26 24 28 32 34 36 35 38 37 31 26 27 28 29 31 31 28 26 26 27 30 31 28 25
3 6 6 9 7 10 12 15 15 13 13 13 13 13 12 12 13 12 7 6 7 4 3 9 12 11 8 6 6 4 4 5 5 7 9 10 11 12 11 12 12 12 11 10 9 9 8 7 6 5 6 9 15 19 22 23 25 27 27 28 28 25 23 27 33 35 35 35 35 34 32 30 30 31 30 31 32 32 28 27 32 33 32 32 31 28
3 4 2 6 6 8 10 13 15 12 10 12 13 14 12 9 8 6 4 6 8 5 5 7 8 10 7 3 5 4 5 6 7 10 10 8 9 11 12 11 11 10 9 8 7 7 7 6 6 6 7 9 13 16 18 20 20 21 22 23 22 20 23 30 34 33 32 33 35 35 34 35 37 37 36 35 35 36 34 31 32 33 34 35 33 30
4 2 2 5 6 7 8 10 11 7 5 8 10 9 9 8 7 5 3 3 6 8 8 6 7 9 6 7 7 5 6 7 6 7 6 6 6 7 8 9 9 8 7 7 7 7 7 6 7 8 10 12 16 19 21 22 21 20 20 20 19 22 27 32 34 34 35 38 42 42 40 41 40 39 39 38 39 40 37 32 30 32 35 35 34 32
3 4 4 4 5 6 5 6 8 6 6 7 6 4 7 8 9 9 6 3 2 1 4 4 4 5 7 9 10 9 8 7 5 4 4 5 6 6 6 6 7 7 6 7 7 8 8 7 7 10 13 16 20 23 24 24 24 23 23 23 25 28 32 35 37 38 39 40 42 43 43 43 42 40 40 40 41 41 36 31 31 32 33 34 34 33
2 1 3 1 3 4 3 6 7 6 8 5 5 5 2 9 14 12 8 6 6 5 2 0 1 6 8 8 9 11 9 8 8 6 6 7 8 8 7 6 6 7 6 7 7 7 7 7 8 10 13 15 17 19 21 23 24 25 26 28 31 32 35 36 35 35 35 35 37 41 43 43 43 43 42 39 34 31 29 29 31 33 34 33 34 34
1 1 1 1 2 3 4 5 7 7 4 3 5 6 4 5 12 12 8 7 6 6 4 2 1 3 5 5 5 8 9 9 7 5 5 6 6 8 9 9 8 8 8 8 7 7 8 9 10 12 13 14 15 18 21 23 25 26 27 30 32 33 34 35 33 33 34 36 37 40 42 42 41 39 35 29 26 26 28 30 32 34 34 33 33 34
4 2 1 2 1 3 5 4 2 1 3 4 2 2 3 3 1 8 7 4 6 7 6 3 2 5 6 6 6 7 9 10 7 4 2 1 3 4 5 7 8 7 7 6 5 5 7 9 10 12 14 15 16 19 23 25 26 27 27 28 29 31 32 33 34 34 36 37 38 39 39 39 37 32 26 25 29 32 33 32 33 35 34 32 33 32
5 2 2 2 1 2 5 4 3 3 1 3 6 7 3 4 6 3 9 2 6 7 6 2 4 8 9 8 7 8 9 10 7 0 5 3 2 4 4 4 5 5 5 5 4 3 5 8 10 13 15 17 17 19 23 25 26 27 26 25 27 29 31 32 32 33 35 36 38 40 40 36 32 30 27 28 33 34 33 33 33 34 33 32 33 33
7 3 3 3 2 2 5 5 4 2 2 5 7 10 7 5 6 2 8 2 5 5 5 1 4 7 9 9 7 6 8 8 5 3 6 5 3 5 6 6 6 6 6 7 8 10 11 13 13 13 14 16 18 20 23 26 27 27 25 26 28 29 29 30 31 33 36 38 39 40 38 32 29 30 33 36 36 35 34 33 33 32 32 32 32 31
7 5 4 4 2 1 3 3 2 2 3 6 7 9 8 4 2 6 5 4 5 6 3 3 6 5 5 6 5 6 7 6 6 4 5 5 6 5 5 6 6 6 7 8 9 12 16 16 15 15 16 18 20 21 24 26 27 26 25 26 28 28 28 30 33 35 36 35 35 35 31 28 31 36 39 39 36 31 30 28 27 25 24 25 27 27
4 4 2 3 2 2 3 3 1 1 3 5 7 9 8 3 7 7 4 6 3 7 3 4 7 6 6 7 6 5 4 4 5 1 4 7 8 6 6 6 6 6 7 7 8 11 14 14 13 14 15 17 19 22 24 26 25 23 25 26 26 26 28 30 31 31 30 28 29 29 28 28 34 40 39 33 26 23 23 23 20 16 15 17 19 21
0 2 3 2 2 2 3 3 1 2 3 5 9 10 5 3 5 3 5 2 5 7 4 5 8 7 8 9 7 6 5 4 6 6 7 8 7 5 5 6 7 7 7 6 7 9 11 10 8 9 12 15 19 22 25 26 24 22 22 21 19 20 22 23 23 23 24 24 25 27 27 28 32 34 28 21 18 20 23 22 19 18 18 19 19 18
4 2 3 2 0 1 3 4 2 1 5 7 9 8 4 4 5 5 1 5 6 6 5 6 7 7 8 9 7 7 7 7 8 8 7 7 6 5 5 5 5 5 3 4 5 8 9 9 9 10 11 15 19 21 22 22 18 15 13 11 11 15 17 17 18 20 22 23 24 26 25 24 25 24 19 16 17 21 22 20 19 21 24 25 23 17
4 3 2 2 0 2 3 1 1 3 6 8 5 2 3 3 3 5 5 5 5 6 6 6 6 6 8 10 8 8 8 7 6 6 6 6 5 5 5 4 3 2 2 4 6 8 9 8 9 10 11 14 16 16 16 14 11 10 11 9 10 13 15 16 18 19 20 21 21 21 21 20 21 20 18 16 17 20 21 20 20 21 22 23 22 18
3 5 5 3 1 1 4 3 3 3 6 6 5 7 6 7 7 8 9 7 5 6 5 5 6 6 6 9 9 7 6 6 5 5 5 4 3 2 3 4 4 4 4 4 6 8 9 9 9 10 10 11 12 12 10 9 9 11 11 9 10 13 15 16 16 16 16 16 15 15 16 17 16 15 16 19 22 24 23 21 21 21 19 20 21 19
2 3 4 4 2 1 3 2 3 4 4 5 8 9 10 10 7 7 10 9 6 5 6 6 6 6 6 7 8 6 4 4 6 6 4 4 3 2 2 3 4 4 3 4 7 9 9 8 8 9 10 9 9 10 9 8 9 11 9 8 9 12 14 15 14 12 11 10 11 12 13 12 11 15 21 24 24 23 21 21 21 21 20 20 20 17
2 1 3 5 5 3 2 2 4 5 5 5 7 9 10 10 8 8 10 8 6 7 8 7 7 7 7 8 8 6 4 3 4 4 3 4 3 1 1 3 2 1 4 6 8 9 9 9 9 9 10 10 9 10 10 8 8 9 7 6 7 10 12 13 13 13 12 12 13 12 12 11 12 16 19 19 19 18 19 19 21 22 22 22 20 18
1 2 4 4 3 4 4 3 0 6 6 6 5 6 7 9 9 9 9 8 7 8 8 9 9 8 6 7 7 6 5 5 2 2 1 2 3 3 2 2 2 3 5 7 9 9 10 10 8 8 10 11 12 12 11 11 10 10 10 10 10 11 13 12 12 11 11 11 9 6 8 11 11 13 15 17 17 16 15 16 19 22 23 22 21 20
1 1 4 4 4 6 6 5 4 6 7 7 6 5 5 5 7 8 7 8 9 8 9 10 10 7 7 8 8 8 8 7 6 3 2 2 2 0 1 3 4 5 7 9 11 12 12 10 8 10 12 14 15 15 14 15 17 18 19 19 17 15 15 12 10 9 8 6 6 5 7 12 12 13 16 17 16 14 14 14 17 19 19 19 19 18
3 0 3 6 7 5 4 5 6 7 5 1 2 3 3 2 6 8 7 7 7 7 8 10 9 8 9 9 10 11 10 10 9 7 4 1 2 4 5 5 5 7 9 11 12 12 12 11 12 13 15 16 18 19 20 22 23 24 23 22 20 18 18 17 15 14 10 7 9 13 15 15 14 14 16 16 16 16 15 14 14 14 15 15 15 13
2 2 3 5 6 4 5 7 6 6 6 3 1 2 2 2 7 10 8 7 7 6 8 10 10 9 9 7 8 9 5 5 7 7 6 5 4 6 8 7 7 9 11 13 14 12 12 14 16 16 18 19 20 22 24 25 26 24 22 21 20 17 16 16 15 13 12 13 17 19 18 16 15 16 17 17 17 17 16 14 12 11 11 11 11 11
Wind_Direction
153 174 207 190 198 200 199 195 195 210 193 173 214 251 193 180 193 196 182 175 168 160 186 179 162 164 171 177 183 181 182 188 185 184 187 187 188 189 191 193 192 197 200 197 197 193 189 192 196 197 197 197 199 202 202 202 203 205 205 205 207 210 211 211 212 213 213 213 213 214 215 215 219 223 228 232 233 239 244 249 251 250 258 258 237 229
151 180 219 210 193 196 207 205 198 207 206 197 206 268 253 207 201 195 169 175 171 152 185 181 160 174 179 179 183 178 182 193 188 185 191 192 193 193 193 195 195 198 193 186 194 196 188 185 188 193 193 193 195 198 200 201 202 205 207 206 208 211 211 212 213 214 215 215 215 215 216 218 221 226 232 237 239 242 245 250 250 249 254 232 199 195
198 207 226 216 179 191 221 198 184 215 222 218 181 149 253 262 220 88 163 173 171 145 175 178 172 186 186 182 185 184 188 195 190 189 192 191 192 195 196 196 195 194 188 184 191 196 194 186 182 185 189 191 194 196 199 201 202 204 206 208 209 210 211 213 215 215 216 218 220 220 222 224 227 233 236 239 242 243 245 248 244 240 232 198 184 188
206 239 230 204 148 177 224 190 169 208 230 212 182 159 211 238 192 228 182 168 166 114 157 161 157 187 191 193 200 198 198 198 195 196 194 191 193 196 198 196 192 191 188 190 191 192 194 191 184 181 184 188 191 193 196 198 200 202 205 207 209 210 212 214 215 216 218 221 222 224 228 231 234 236 235 240 245 245 244 238 229 223 206 187 187 196
224 252 226 162 149 180 211 197 164 180 236 239 202 187 199 199 209 246 153 145 91 24 118 117 61 318 206 201 215 210 210 213 204 200 199 202 203 201 199 196 194 192 189 189 191 191 190 191 189 186 184 184 187 190 193 196 199 201 203 206 209 211 213 214 215 216 218 221 221 221 224 228 231 232 235 241 243 238 232 222 214 207 194 187 193 200
237 245 207 160 173 183 204 211 179 175 207 278 227 201 206 205 202 160 137 137 100 0 185 138 123 278 241 208 216 207 209 217 209 201 205 207 208 207 202 201 201 197 194 192 191 190 188 188 190 191 187 184 186 190 193 196 198 200 202 205 208 210 213 214 215 215 218 221 220 218 217 218 221 223 229 237 235 227 218 210 203 197 192 192 195 194
224 217 196 208 201 180 202 221 197 170 161 264 238 199 203 216 199 161 152 152 151 200 207 172 170 245 252 222 219 209 214 219 216 212 211 207 205 204 202 203 202 197 196 196 194 189 187 187 188 191 190 187 189 192 193 195 196 199 202 204 207 211 214 215 215 215 218 221 221 219 219 220 220 217 219 225 222 213 202 196 194 194 193 192 190 190
188 191 200 211 205 188 201 224 198 156 143 235 231 178 188 221 217 183 167 174 184 140 160 184 153 107 219 227 205 195 215 224 226 226 219 212 207 204 204 203 200 197 194 190 192 190 188 189 188 190 192 192 193 194 193 193 196 199 203 206 209 212 216 218 216 216 218 219 219 219 220 222 221 220 215 205 196 192 189 186 188 190 189 187 187 191
185 190 203 198 201 209 205 212 186 153 164 239 222 175 188 219 220 195 177 189 183 117 155 209 169 120 246 255 174 180 210 223 228 227 221 214 207 203 203 203 201 199 194 189 189 190 190 191 191 191 191 193 195 194 193 195 197 201 205 208 210 213 217 219 217 217 218 219 219 218 219 220 219 218 210 195 184 184 186 184 184 184 183 183 186 193
213 192 189 184 199 215 215 214 171 159 199 238 204 168 169 223 223 199 183 180 150 147 191 203 188 187 264 258 164 172 209 224 228 226 221 215 208 205 203 202 201 198 194 193 191 190 191 192 192 191 190 193 195 195 195 197 199 202 205 207 209 213 217 218 215 216 218 219 218 219 219 218 214 209 200 190 185 186 186 183 180 180 181 185 189 196
248 237 184 178 193 195 212 216 174 179 207 208 116 140 59 351 327 177 138 117 134 197 217 200 191 191 231 246 190 182 205 213 217 223 220 214 209 207 204 200 198 196 195 195 194 194 193 193 192 190 191 193 195 196 196 197 199 202 205 207 209 213 214 214 214 216 217 217 217 219 219 215 211 203 194 188 185 184 184 184 182 183 188 190 192 196
252 255 242 215 199 180 196 222 194 193 201 177 127 157 214 324 8 26 11 77 169 225 238 208 195 191 214 241 211 207 215 212 210 215 213 208 208 206 203 200 197 195 195 194 194 194 191 192 192 191 193 194 193 195 196 198 200 201 204 206 208 210 211 211 213 215 215 215 216 219 218 214 210 204 197 194 191 188 190 193 193 192 192 190 191 194
238 238 256 275 247 189 183 227 235 207 168 152 147 137 173 276 3 134 261 195 205 240 238 196 183 196 231 233 213 212 220 218 214 215 211 206 204 201 198 199 196 192 193 194 194 193 192 192 191 192 193 193 192 195 197 198 200 201 203 205 206 208 210 211 212 213 214 215 216 218 216 213 211 208 204 203 202 201 202 203 201 197 194 192 194 195
232 259 256 246 265 200 183 204 229 220 163 156 165 157 175 183 140 214 238 259 244 256 250 184 174 201 268 254 220 210 216 218 215 216 213 206 201 196 195 194 192 191 192 195 194 194 197 195 191 192 192 192 193 195 196 198 200 201 203 205 206 209 210 210 211 212 214 215 217 217 214 213 212 210 210 212 211 209 208 207 206 204 201 200 202 202
196 240 234 218 228 190 191 203 193 188 179 178 169 155 171 171 163 206 214 199 222 243 273 141 168 191 204 226 217 207 215 217 216 220 215 206 200 193 193 191 189 192 193 194 197 199 201 197 192 192 192 193 195 195 196 199 200 202 204 205 207 209 210 210 210 212 213 214 216 216 214 214 213 212 213 215 215 214 213 212 211 210 207 207 210 208
194 233 244 229 225 196 200 207 176 174 229 215 137 131 187 188 178 198 196 186 185 199 198 141 196 215 207 247 265 219 218 215 217 228 217 197 192 184 189 192 188 194 195 193 198 202 202 195 191 192 193 195 197 197 197 199 200 202 204 205 207 210 210 210 210 211 212 213 214 214 213 214 212 213 214 212 213 216 218 217 213 211 210 213 215 211
181 245 264 234 237 225 210 208 183 174 202 197 136 182 214 175 157 168 233 209 107 156 237 191 219 282 284 278 321 296 207 197 200 218 213 197 181 176 189 193 192 195 193 194 201 202 198 191 192 194 195 196 197 198 200 201 201 203 204 205 207 209 210 211 211 211 211 211 212 212 212 211 211 212 212 210 211 215 217 216 214 214 216 219 221 215
159 252 276 212 227 244 215 215 229 195 172 183 208 205 188 122 122 132 182 14 73 184 255 199 197 242 225 234 313 11 167 181 190 202 206 195 178 184 194 194 195 196 193 197 202 201 195 191 193 195 197 198 199 200 202 203 203 203 205 205 206 207 209 211 211 210 209 209 209 210 209 209 211 213 212 210 212 214 212 212 213 215 219 222 220 214
161 246 292 218 210 239 201 197 245 241 203 209 225 181 149 164 230 145 166 177 155 202 260 278 230 218 195 214 256 216 182 187 192 191 192 188 187 194 197 196 197 195 193 199 202 201 197 193 195 197 199 201 202 203 205 205 204 204 206 207 207 208 210 211 209 208 209 208 208 208 207 208 211 212 211 210 211 211 210 210 211 215 219 218 214 209
159 196 274 256 215 219 180 174 221 245 244 218 132 158 155 170 182 182 168 164 181 199 216 272 286 245 225 212 199 208 201 183 177 179 189 195 196 196 195 194 194 190 193 199 200 202 198 194 197 198 200 201 202 205 206 206 205 206 207 208 209 211 212 211 209 208 208 206 205 204 206 209 211 211 211 210 210 209 208 209 210 215 216 211 209 209
172 186 235 275 273 221 210 206 201 207 210 193 199 207 188 125 144 174 170 142 152 167 176 215 266 261 251 206 187 212 209 176 176 184 193 198 197 197 195 191 189 191 196 200 201 203 199 196 199 201 203 204 203 205 206 206 207 208 209 209 210 211 211 211 210 208 207 204 201 201 204 208 210 210 210 210 209 209 208 210 213 215 213 208 210 214
184 186 214 252 266 232 238 238 202 187 189 188 198 206 185 159 129 148 229 247 127 157 171 175 227 262 259 203 193 214 196 176 188 189 190 193 191 194 198 193 190 192 197 202 203 202 198 196 198 200 202 203 202 204 205 206 208 208 209 210 211 211 211 211 210 207 205 201 198 200 205 207 207 208 209 209 209 211 211 212 214 213 211 210 214 220
159 149 199 235 245 234 241 246 224 203 201 199 210 205 178 155 136 149 206 235 191 203 138 126 209 263 262 215 207 226 204 182 191 189 184 187 188 192 197 195 193 196 201 204 202 200 198 196 196 196 198 199 201 203 204 205 207 208 210 210 210 211 213 213 210 206 203 199 197 200 204 205 203 203 206 208 210 212 214 214 215 215 215 216 220 224
164 143 181 230 260 270 266 269 267 218 181 211 245 213 173 176 170 161 177 180 183 204 139 132 237 264 274 258 223 234 220 176 180 184 182 184 189 194 196 196 197 201 206 206 202 199 193 187 189 192 196 199 202 204 204 205 207 209 210 211 210 213 215 213 209 205 202 199 199 200 197 193 197 203 206 210 213 215 216 217 219 220 220 221 225 227
200 182 162 201 244 267 274 276 286 286 162 189 237 212 193 187 165 142 123 136 192 213 162 160 229 250 273 294 260 178 184 177 182 182 181 184 189 194 196 197 199 202 208 208 201 191 180 178 185 190 195 199 202 203 203 204 207 209 210 211 211 214 215 212 207 204 201 200 198 191 177 176 195 208 210 212 216 217 218 221 223 224 223 225 230 231
189 188 165 187 213 223 228 228 237 242 193 200 210 204 203 184 167 162 129 141 210 226 155 159 212 251 280 299 335 188 185 186 192 187 187 193 191 192 195 196 199 202 205 206 198 189 185 185 189 192 196 200 202 202 203 205 207 209 211 212 213 214 214 209 206 203 201 198 188 166 161 180 199 209 213 215 216 218 221 224 227 228 227 230 234 234
157 181 182 192 208 212 209 220 222 168 156 204 209 203 208 194 177 158 127 164 188 166 173 210 196 193 251 250 225 227 208 196 194 186 190 200 197 195 195 195 199 202 203 204 200 194 192 192 194 197 199 202 203 204 205 206 207 208 210 212 213 214 212 209 205 199 192 183 161 148 164 188 202 209 219 222 220 222 225 226 230 233 233 236 237 235
107 201 198 195 209 215 210 217 218 165 171 206 204 200 207 200 177 161 170 189 160 137 211 250 198 173 207 220 210 214 213 208 206 194 194 199 195 192 194 196 199 201 203 205 203 198 196 198 200 200 200 203 204 206 208 208 210 210 211 213 213 212 211 206 194 182 174 166 155 156 172 192 202 208 223 229 227 230 230 228 230 228 229 236 238 235
143 218 212 198 213 220 218 223 223 209 212 218 209 205 204 191 180 186 194 180 153 163 213 223 189 186 199 204 204 206 201 200 205 200 194 191 184 182 187 191 196 202 205 206 204 200 199 203 206 204 202 203 204 206 209 210 212 213 214 215 213 211 209 194 174 171 171 169 165 167 177 190 194 199 217 227 228 231 229 229 231 223 222 232 236 236
167 213 202 190 217 226 222 230 231 225 231 238 232 221 208 191 188 195 197 178 173 190 201 179 182 197 202 198 204 207 197 191 191 174 162 170 177 179 182 188 196 202 204 206 204 200 203 208 210 206 203 204 205 206 209 210 211 213 214 214 213 210 200 178 169 174 175 172 172 172 174 180 186 197 215 225 227 226 224 230 238 233 229 233 236 239
185 224 198 171 209 237 224 226 232 227 229 235 238 233 218 199 193 193 182 168 182 203 161 152 178 211 226 202 191 180 136 120 133 157 174 185 185 179 180 189 198 201 202 202 200 200 208 210 202 194 195 203 209 210 211 212 213 213 214 213 211 204 185 173 175 177 174 171 169 164 164 173 185 198 214 223 224 220 220 232 240 238 237 237 237 240
171 241 225 149 185 235 223 220 229 228 229 241 246 240 225 198 186 187 163 165 177 164 112 121 173 221 232 140 92 86 124 156 180 185 184 185 182 178 184 190 194 196 195 192 191 193 198 194 183 184 190 199 207 211 214 216 215 214 214 212 205 190 176 175 175 171 166 166 164 162 166 178 188 198 210 217 216 213 219 231 237 238 240 239 238 240
142 180 232 157 182 234 229 206 206 199 211 245 249 228 203 176 158 145 133 170 169 146 138 161 206 221 201 147 132 135 159 181 206 207 184 162 155 165 181 187 187 190 187 179 178 181 187 192 191 194 197 197 203 209 212 212 209 208 208 203 191 179 175 175 172 167 165 165 167 169 174 182 193 204 211 214 211 212 220 231 235 237 241 240 238 239
132 161 214 184 178 225 228 166 154 161 196 233 259 221 172 152 133 118 95 36 2 96 171 194 203 179 157 157 162 162 167 176 185 195 175 151 141 144 164 182 182 183 181 177 181 188 190 189 189 196 202 205 208 211 209 206 203 201 198 192 185 179 176 175 174 173 170 168 169 174 178 184 194 205 211 213 212 212 220 230 235 238 242 240 238 236
339 157 218 193 160 194 169 126 149 198 222 243 318 331 131 121 113 100 74 43 15 349 326 346 201 182 172 173 168 157 156 159 151 147 156 162 155 146 153 179 183 174 175 183 190 193 186 175 172 180 192 201 205 202 197 195 193 191 188 186 183 179 176 176 175 173 172 170 170 178 184 188 196 205 209 211 212 214 223 234 237 237 240 240 237 235
334 33 167 89 103 159 137 142 181 214 261 330 11 1 3 92 106 95 57 10 5 10 3 343 295 191 161 145 140 138 139 138 126 125 160 172 163 149 155 172 179 174 178 183 185 185 183 187 187 181 181 185 187 185 185 186 186 183 182 182 181 178 175 174 173 172 175 176 177 184 190 192 199 205 207 206 210 222 236 243 240 236 237 240 238 235
107 91 126 91 114 153 132 137 174 95 6 347 357 342 316 304 172 117 92 342 333 23 23 356 67 94 102 105 112 119 118 108 84 41 346 206 186 176 165 164 164 167 174 175 181 199 206 205 194 182 177 176 178 181 183 182 181 178 175 175 177 175 173 174 176 177 179 180 183 190 194 195 197 198 201 207 213 224 238 243 239 236 237 238 237 235
78 104 167 152 162 109 106 112 98 74 85 249 272 279 283 302 287 125 102 12 316 17 22 342 129 118 111 112 126 133 116 99 94 38 298 308 154 143 119 110 123 131 139 140 138 165 195 193 183 178 177 174 176 183 183 179 176 173 170 171 173 174 176 179 181 182 182 182 186 192 197 197 191 188 196 209 217 228 240 242 237 236 237 236 236 235
12 27 104 110 75 63 103 127 134 124 214 242 273 289 301 312 299 38 97 166 285 353 15 61 124 120 119 123 137 127 105 105 135 221 286 323 59 114 119 116 114 114 122 136 146 156 168 173 171 169 171 174 178 182 182 178 174 170 169 173 176 178 181 184 185 186 186 188 190 195 197 193 185 187 199 210 218 231 241 240 237 239 239 237 237 236
353 351 39 51 21 51 94 101 122 141 239 258 269 285 294 307 19 75 104 221 283 341 344 121 108 101 100 96 86 78 90 137 180 241 314 15 41 47 82 104 117 123 124 134 153 163 166 166 163 163 174 183 183 181 179 176 173 172 173 177 180 183 187 188 190 192 192 191 192 193 192 185 183 191 203 211 220 234 242 242 243 244 243 239 237 237
3 340 12 58 22 17 77 94 104 196 247 267 283 288 294 345 65 91 177 231 333 0 338 114 110 113 100 85 79 75 86 153 165 132 31 57 55 37 45 63 77 93 109 132 158 165 164 165 168 172 183 189 183 178 177 176 174 175 178 180 185 189 192 193 194 194 192 191 191 189 188 185 187 194 203 213 226 239 242 241 242 243 242 243 244 244
354 313 329 45 43 11 72 93 36 298 262 295 311 306 311 68 96 163 206 207 32 12 2 83 95 99 92 84 86 94 93 94 93 79 63 66 68 57 48 49 58 70 88 124 157 166 164 169 177 177 182 187 183 180 180 179 178 180 181 181 186 192 194 194 193 192 192 191 189 187 187 188 190 196 205 218 229 234 234 232 230 230 233 238 241 242
160 144 322 318 113 46 56 59 54 219 266 314 331 329 358 87 155 190 128 56 40 13 12 60 79 82 84 81 72 75 77 64 62 71 70 66 70 71 58 47 48 59 95 146 175 184 180 180 182 177 179 184 184 184 184 181 179 174 167 168 183 192 194 192 190 191 191 189 190 191 190 190 193 201 214 226 231 235 237 234 229 230 233 234 234 228
142 146 213 228 146 72 85 93 197 217 281 319 0 58 35 54 122 121 87 65 49 37 30 38 48 60 84 92 83 73 74 64 52 62 68 63 67 79 81 74 70 88 188 203 204 201 195 189 184 179 180 183 183 184 186 180 166 148 144 156 180 189 191 192 191 190 189 188 190 192 195 200 206 214 225 237 246 250 249 242 237 237 237 236 234 219
175 176 164 135 101 150 148 195 251 269 302 332 58 94 82 70 74 86 93 87 62 54 55 52 41 33 67 96 94 81 86 95 82 71 79 80 67 88 130 145 149 164 204 232 223 212 209 204 193 182 176 177 177 176 175 170 156 147 148 159 173 178 182 185 186 184 184 186 188 193 203 213 219 232 247 253 253 252 248 243 239 237 233 229 226 209
147 162 133 116 157 147 88 32 349 1 357 29 75 89 87 81 78 80 87 86 79 76 79 73 55 28 36 73 82 68 71 106 107 102 122 142 155 192 172 127 124 146 187 226 224 219 216 209 197 183 166 158 162 163 159 158 158 154 154 164 171 173 173 173 172 175 180 190 203 213 220 227 237 250 256 255 252 248 247 245 239 231 223 218 213 198
76 101 92 116 145 132 81 325 348 16 4 23 73 93 95 92 94 88 83 87 90 85 82 79 71 54 42 52 66 62 31 40 93 113 147 155 145 143 54 44 43 189 210 225 226 221 212 203 195 180 155 142 147 150 144 142 144 144 147 162 175 179 179 178 179 183 190 200 209 215 217 221 237 251 256 257 256 250 247 245 237 226 220 215 208 197
183 128 94 108 124 105 128 194 28 37 12 355 28 76 92 93 97 97 100 108 102 87 79 71 62 57 50 47 53 50 14 352 17 105 100 70 63 41 27 3 293 252 233 231 226 215 209 205 192 164 140 138 146 147 140 134 131 130 134 139 148 159 163 166 173 177 180 185 186 196 220 231 246 263 266 263 256 247 238 233 228 222 218 213 208 206
286 135 123 123 99 84 106 156 140 76 39 1 1 24 41 66 85 89 93 99 97 93 88 76 63 51 50 51 48 40 22 358 340 338 8 50 57 351 233 232 237 229 220 219 215 208 204 194 171 149 141 144 151 151 146 141 137 134 131 129 130 131 124 117 126 144 157 161 146 163 233 251 259 261 255 244 232 221 210 205 205 206 206 208 211 216
18 2 154 132 129 139 156 164 151 121 100 32 326 16 18 51 82 78 68 67 79 89 90 86 79 62 51 49 48 43 27 0 343 333 318 280 210 214 216 212 209 204 201 201 201 201 193 176 161 151 150 154 156 154 150 146 140 135 132 130 129 123 113 112 124 136 146 171 189 196 216 237 244 239 232 221 208 198 191 187 190 195 200 208 215 218
45 275 234 139 133 163 159 142 141 127 122 145 159 29 5 41 78 78 71 68 73 77 81 84 81 71 62 56 61 68 49 335 333 328 302 281 250 225 218 207 192 189 191 189 185 182 174 165 161 158 158 161 158 152 148 146 142 140 140 138 132 122 119 132 149 155 165 195 211 215 222 232 233 226 219 211 202 194 186 180 183 193 199 202 203 199